Theta_e
346 344 341 337 337 336 336 337 339 345 339 341 339 339 338 337 336 335 334 333 332 333 333 337 337 336 334 335 334 334 335 335
347 346 344 343 342 338 337 338 338 339 337 338 337 337 337 336 335 333 332 332 332 332 330 332 333 333 332 334 334 333 334 334
346 345 345 344 343 342 338 337 337 338 337 334 336 337 336 335 334 333 332 332 330 328 328 329 330 332 333 333 332 333 333 332
346 345 344 344 342 343 342 341 340 339 338 338 336 336 337 335 334 333 329 330 327 326 328 325 330 332 332 331 332 332 331 330
345 345 344 345 343 343 341 342 342 341 339 339 337 336 336 336 334 331 330 329 326 326 328 329 330 333 332 332 331 330 329 329
343 344 344 343 341 340 340 343 343 341 340 339 337 336 336 334 334 333 330 327 327 327 330 329 331 332 332 331 330 329 328 328
343 342 342 342 341 340 340 341 340 338 339 338 337 335 335 334 332 331 331 330 328 326 326 329 332 331 331 330 328 327 325 326
342 342 341 341 341 339 337 338 337 337 336 337 337 335 334 334 333 331 330 332 328 325 327 330 331 331 330 329 326 325 324 323
340 342 341 341 339 340 337 338 335 335 334 336 335 335 334 332 331 331 332 331 329 327 326 329 330 329 328 327 325 324 323 322
337 341 340 340 339 339 338 335 334 335 335 335 334 333 332 332 332 332 331 330 329 328 327 327 328 329 327 325 324 323 322 321
335 341 339 339 339 338 336 334 333 334 335 333 332 332 332 332 332 331 330 329 328 328 329 326 327 327 326 325 323 321 321 320
335 341 339 339 339 336 334 332 332 332 332 331 332 330 330 329 329 328 329 328 329 328 326 325 326 326 325 323 322 322 321 320
336 340 338 339 337 333 332 331 331 331 329 329 330 330 329 328 328 327 328 328 328 328 327 325 326 325 325 323 323 322 323 322
336 339 338 338 334 333 332 331 330 331 331 329 328 329 328 328 328 329 328 327 327 327 326 325 324 325 324 323 324 322 323 322
336 338 338 337 334 333 331 330 329 329 329 328 331 330 329 327 327 327 327 327 326 326 326 325 325 324 324 324 324 324 323 323
335 337 337 336 334 333 331 330 329 328 328 329 330 329 329 328 327 327 326 325 325 325 325 325 324 325 324 323 321 321 325 326
335 336 335 336 334 332 331 329 328 327 328 328 328 327 325 325 325 326 325 325 325 325 324 325 324 325 324 324 323 322 323 324
336 335 335 333 333 332 331 329 327 327 328 328 327 325 323 322 323 325 325 324 323 324 323 321 324 324 324 324 324 324 324 323
336 334 335 332 333 332 330 328 327 326 328 327 325 323 322 321 322 323 323 323 322 323 323 323 324 324 324 324 324 324 323 323
334 331 331 330 332 332 330 327 326 326 328 326 326 324 321 321 320 320 321 322 322 322 323 324 324 324 324 324 324 323 323 323
Wind_Speed
14 15 15 15 16 18 18 17 16 17 16 18 18 20 20 21 21 19 17 14 12 12 14 19 23 25 24 26 22 16 16 17
14 14 14 13 13 18 18 17 16 16 15 16 17 19 21 25 25 23 21 18 14 15 13 15 19 23 23 25 20 15 13 15
13 15 14 13 13 13 17 18 17 16 15 16 17 17 22 26 27 23 21 22 19 19 16 16 20 22 24 24 20 13 13 17
15 14 16 16 13 12 14 15 16 16 16 16 17 19 20 22 27 26 18 24 23 20 24 21 22 20 23 20 16 11 12 14
18 16 16 16 14 14 13 15 17 18 19 18 19 20 21 22 22 25 25 24 23 24 25 25 24 21 21 20 13 15 13 14
20 18 18 19 16 15 14 14 14 15 18 19 19 19 21 23 22 22 23 27 27 28 30 26 25 23 23 21 15 18 18 23
23 22 20 20 17 17 15 15 14 17 17 18 19 20 22 21 22 23 22 22 28 28 28 28 25 23 23 21 18 15 13 13
23 24 22 21 20 16 16 15 15 18 22 16 20 19 21 21 21 22 21 20 28 30 29 27 26 23 21 19 18 13 12 10
26 24 24 22 19 17 13 14 17 19 19 17 19 19 19 22 21 18 17 16 24 28 30 26 25 23 24 20 17 14 15 14
27 25 25 23 20 18 13 17 17 15 17 16 18 20 20 21 19 16 19 20 22 29 33 28 26 25 22 20 17 15 16 15
28 27 26 24 21 17 16 12 16 15 15 16 18 20 18 20 19 18 20 22 22 30 31 29 25 21 22 20 17 17 16 16
29 27 25 24 20 16 15 13 14 14 14 17 17 22 23 24 25 19 21 27 27 31 31 28 25 24 24 21 18 18 17 17
29 28 27 26 22 20 17 15 15 14 14 16 19 20 22 26 26 26 28 32 32 34 32 32 26 31 19 20 11 15 11 10
28 28 29 27 23 20 18 15 14 15 14 13 18 21 23 26 26 25 31 29 30 33 32 28 26 28 23 18 6 4 12 14
28 29 29 26 23 20 17 14 11 13 14 14 18 20 19 21 23 27 27 34 35 37 34 30 23 27 28 19 6 6 14 17
27 28 29 27 25 22 21 19 15 15 16 15 13 12 14 17 21 28 34 32 33 38 36 31 28 25 26 22 17 16 11 6
27 27 28 27 26 22 21 18 14 14 14 11 13 9 9 14 22 30 33 32 40 40 36 31 31 30 27 24 19 15 23 13
25 27 29 27 27 23 21 18 14 14 12 14 10 8 6 9 14 24 34 31 35 41 43 40 32 29 28 25 18 15 13 12
26 28 27 29 28 24 20 17 16 14 14 14 13 9 9 8 11 18 26 31 37 36 40 40 34 28 26 23 18 14 12 10
23 25 25 27 28 23 20 17 16 13 15 14 13 11 10 9 11 18 20 26 31 32 33 35 27 26 24 22 18 15 15 11
Wind_Direction
176 182 192 193 199 202 205 207 205 200 205 205 207 206 202 197 185 183 184 171 191 187 188 183 177 177 172 165 161 153 143 138
182 182 188 194 201 206 205 210 210 208 206 209 202 203 199 189 187 189 182 169 179 181 191 196 195 183 178 167 166 158 146 142
192 181 191 195 197 207 207 210 212 212 208 210 200 196 196 192 196 187 186 181 187 174 186 205 210 191 183 174 171 162 157 148
196 191 185 190 198 203 204 210 212 214 208 209 198 196 192 193 195 188 220 207 195 198 192 205 205 187 185 181 177 165 152 140
205 198 188 187 197 196 205 208 208 214 210 203 204 200 193 192 198 212 212 207 196 190 201 205 191 185 182 179 191 166 163 154
204 200 194 193 198 203 207 205 203 209 208 206 204 196 185 189 197 199 194 202 201 202 196 201 189 185 180 186 168 191 174 139
202 204 201 194 193 201 204 207 208 215 213 208 207 203 190 191 189 193 201 200 206 201 203 198 188 184 182 178 169 204 164 155
196 202 200 194 189 194 205 211 210 217 219 214 210 211 204 197 198 198 200 198 200 205 205 193 181 179 179 182 183 177 174 173
193 198 199 195 192 192 200 206 213 209 216 215 208 209 204 193 191 193 199 198 198 199 204 201 181 173 179 178 174 173 177 177
195 195 198 197 193 192 191 200 201 201 210 210 204 205 202 195 193 198 194 201 209 203 200 193 192 187 164 167 175 175 175 175
194 192 196 195 193 191 194 195 202 209 208 206 205 205 202 199 194 195 197 196 188 179 189 185 199 161 156 179 167 175 172 176
193 190 195 192 187 188 190 189 200 203 200 201 201 208 209 209 204 207 206 194 184 181 181 184 208 159 176 167 170 169 175 176
190 187 192 189 180 183 187 182 200 199 200 203 208 210 214 221 228 227 209 184 189 188 184 191 211 165 190 132 138 144 162 175
189 189 190 183 187 187 188 187 202 208 204 209 221 229 229 225 222 210 189 186 186 186 182 186 205 172 160 139 141 149 183 183
194 190 192 189 190 182 178 184 194 204 204 209 216 214 213 215 216 217 197 190 189 189 186 184 186 188 170 168 156 185 175 193
198 190 191 190 189 185 181 185 191 206 209 211 208 214 223 225 216 212 215 201 187 190 184 184 184 184 185 182 188 184 172 169
196 188 188 187 190 187 181 190 197 196 198 202 201 201 222 233 232 226 217 211 197 193 187 184 193 187 184 196 190 228 180 172
186 186 188 182 188 186 187 189 188 174 180 193 182 196 200 240 243 225 208 202 186 188 190 190 198 198 188 194 200 204 187 207
182 180 182 183 186 184 186 184 190 190 187 190 178 181 191 207 218 205 194 188 188 184 184 192 199 196 193 194 205 209 217 224
169 174 177 177 186 180 182 182 188 188 184 185 183 179 183 192 197 196 182 184 186 186 184 190 192 192 190 192 194 202 206 220